Location: Newark
(5.8900°S, 42.6378°W)
Time: 20:52:05
(UTC+00:00)

Vanguard 1 Rocket - Pass Details

Date: 24 October 2019
Orbit: 651 x 4225 km, 34.3° (Epoch: 10 November)

Event Time Altitude Azimuth Distance (km) Brightness Sun altitude
Rises 23:11:26 0° 283° (WNW) 8,086 12.9 -36.4°
Reaches altitude 10° 23:18:31 10° 275° (W) 6,624 12.4 -38.1°
Maximum altitude 23:35:02 33° 217° (SW) 3,494 10.5 -41.9°
Enters shadow 23:43:53 13° 159° (SSE) 3,726 10.5 -43.9°
Drops below altitude 10° 23:44:39 10° 155° (SSE) 3,854 - -44.1°
Sets 23:47:33 0° 144° (SE) 4,456 - -44.8°
